CZ-6A DEB

Satellite information

Favourite Embed

Satellite Type and Status

DEBRISIN ORBIT

Key statistics

Satellite CZ-6A DEB at a glance.

Uptime

495

Days in orbit

Revolutions

≈ 14.4

Per day

Orbit

LEO

Low Earth Orbit

Inclination

88.4

Latest

Satellite identification and parameters

Extended collection of information and parameters for CZ-6A DEB.

Object identification

Identified? True

Debris? True

Object name: CZ-6A DEB

International designator: 2024-140SN

Object number (NORAD): 61277

Object ID (CCSDS): 61277

Country: PEOPLES REPUBLIC OF CHINA (PRC)

Current information (Y/N): Y

RCS size: SMALL

Orbital parameters

Period: 99.772 minutes

Inclination: 88.4226 deg

SMA: 7125.76 km

Apoapsis: 809.238 km

Periapsis: 686.013 km

RAAN: 259.6549 deg

Eccentricy: 0.00864651

Argument of periapsis: 272.2746 deg

Mean anomaly: 86.8558 deg

Mean motion: 14.43297737 rev/day

Mean motion (dot): 0.00010096 rev/day2

B* drag term: 0.0028588785 1/REarth

Two-line elements (TLE)

Creation date: Dec. 13, 2025, 4:32 a.m.

Reference frame: TEME

Reference center: EARTH

Epoch: Dec. 12, 2025, 6:18 p.m. UTC

TLE line 0: 0 CZ-6A DEB

TLE line 1: 1 61277U 24140SN 25346.76274080 .00010096 00000-0 28589-2 0 9998

TLE line 2: 2 61277 88.4226 259.6549 0086465 272.2746 86.8558 14.43297737 68139

Live tracking on map

Real-time ground track for satellite CZ-6A DEB.

In-orbit conjunctions

A list of the most updated potential collisions computed for object CZ-6A DEB.

Target Orbit TCA Probability of collision Miss distance Type
FENGYUN 1C DEB SSO 2025-10-05 03:06:23 0.0001921836 102.0 (m) DEBRIS
FENGYUN 1C DEB SSO 2025-05-05 16:57:57 0.0001687178 6.0 (m) DEBRIS
NOAA 16 DEB SSO 2025-02-17 06:45:05 0.0004664056 225.0 (m) DEBRIS
CZ-6A DEB LEO 2025-01-08 09:50:46 0.0003217713 125.0 (m) DEBRIS
COSMOS 1867 COOLANT LEO 2024-11-16 15:38:39 0.0001410156 697.0 (m) DEBRIS

Associated space launch

18 Low Earth Orbit communication satellites with Ku, Q and V band payloads for the G60 constellation operated by Shanghai Spacecom Satellite Technology (SSST) with funding backed by the Shanghai local government. Initial constellation will consist of 1296 satellites by 2027 with long term plans to expand it to 12000 satellites.

CZ-6A DEB was lifted into orbit during the mission ‘Long March 6A | G60 Polar Group 01’, on board a Long March 6A space rocket.

The launch took place on Aug. 6, 2024, 6:42 a.m. from Launch Complex 9A.

For more information about the launch, click the button.

Launch to space Long March 6A | G60 Polar Group 01
Long March 6A | G60 Polar Group 01

Agency: N/A

Status: Launch Successful

Launch date: Aug. 6, 2024, 6:42 a.m. UTC

Rocket: Long March 6A

Launch pad: Launch Complex 9A

Location: Taiyuan Satellite Launch Center, People's Republic of China

...

Latest news about this satellite

News about space launch
Brightness of first Chinese broadband constellation satellites alarms astronomers

The first satellites of a Chinese broadband constellation are significantly brighter than those of Western systems, posing a new challenge for astronomers.

News about space launch
Chinese rocket stage breaks up into cloud of more than 700 pieces of space debris

HELSINKI — A Chinese Long March 6A rocket’s upper stage has fragmented into a cloud of over 700 pieces of space debris, adding to concerns about long-term orbital safety. China […]

News about space launch
China's Thousand Sails Megaconstellation Kicks Off with Dangerous Debris Field

China's Thousand Sails Megaconstellation Kicks Off with Dangerous Debris Field


Newsletter sign-up

Weekly statistics, charts and insights to help you stay on top of the space industry.